| time (UTC) | temp F | wind direction | speed MPH | gust MPH | rain 1hr in | rain 24hr in | rain mn in | humidity % | barometer mb |
| 20260504010519 | 44 | 119 | 2.0 | 6.0 | 0.00 | 0.00 | 0.00 | 77 | 976.0 |
| 20260504005540 | 44 | 128 | 1.0 | 6.0 | 0.00 | 0.00 | 0.00 | 77 | 976.0 |
| 20260504004518 | 45 | 144 | 1.0 | 5.0 | 0.00 | 0.00 | 0.00 | 76 | 976.2 |
| 20260504003518 | 45 | 130 | 1.0 | 5.0 | 0.00 | 0.00 | 0.00 | 76 | 976.1 |
| 20260504002519 | 45 | 131 | 2.0 | 8.0 | 0.00 | 0.00 | 0.00 | 75 | 976.0 |
| 20260504001520 | 45 | 181 | 1.0 | 4.0 | 0.00 | 0.00 | 0.00 | 75 | 976.0 |
| 20260504000516 | 45 | 130 | 2.0 | 7.0 | 0.00 | 0.00 | 0.00 | 74 | 975.8 |
| 20260503235519 | 45 | 130 | 2.0 | 7.0 | 0.00 | 0.00 | 0.00 | 74 | 976.1 |
| 20260503234519 | 45 | 119 | 2.0 | 6.0 | 0.00 | 0.00 | 0.00 | 73 | 976.2 |
| 20260503233519 | 45 | 170 | 1.0 | 4.0 | 0.00 | 0.00 | 0.00 | 72 | 976.2 |
| 20260503232520 | 45 | 126 | 2.0 | 7.0 | 0.00 | 0.00 | 0.00 | 72 | 976.3 |
| 20260503231517 | 45 | 166 | 1.0 | 6.0 | 0.00 | 0.00 | 0.00 | 72 | 976.4 |
| 20260503230517 | 45 | 178 | 2.0 | 7.0 | 0.00 | 0.00 | 0.00 | 71 | 976.5 |
| 20260503225520 | 45 | 125 | 1.0 | 5.0 | 0.00 | 0.00 | 0.00 | 70 | 976.6 |
| 20260503224520 | 45 | 108 | 2.0 | 6.0 | 0.00 | 0.00 | 0.00 | 70 | 976.6 |
| 20260503223519 | 45 | 160 | 2.0 | 6.0 | 0.00 | 0.00 | 0.00 | 70 | 976.8 |
| 20260503222537 | 45 | 124 | 2.0 | 8.0 | 0.00 | 0.00 | 0.00 | 69 | 976.8 |
| 20260503221519 | 45 | 247 | 1.0 | 4.0 | 0.00 | 0.00 | 0.00 | 68 | 976.8 |
| 20260503220517 | 45 | 264 | 1.0 | 3.0 | 0.00 | 0.00 | 0.00 | 67 | 977.0 |
| 20260503215521 | 45 | 114 | 1.0 | 7.0 | 0.00 | 0.00 | 0.00 | 67 | 977.1 |
| 20260503214518 | 46 | 115 | 1.0 | 6.0 | 0.00 | 0.00 | 0.00 | 67 | 977.3 |
| 20260503213518 | 46 | 228 | 1.0 | 3.0 | 0.00 | 0.00 | 0.00 | 66 | 977.4 |
| 20260503212518 | 47 | 134 | 3.0 | 7.0 | 0.00 | 0.00 | 0.00 | 63 | 977.6 |
| 20260503211518 | 47 | 235 | 1.0 | 3.0 | 0.00 | 0.00 | 0.00 | 58 | 977.3 |
| 20260503210518 | 48 | 140 | 1.0 | 4.0 | 0.00 | 0.00 | 0.00 | 56 | 977.3 |
| 20260503205518 | 49 | 179 | 1.0 | 3.0 | 0.00 | 0.00 | 0.00 | 52 | 977.1 |
| 20260503204518 | 50 | 220 | 2.0 | 6.0 | 0.00 | 0.00 | 0.00 | 49 | 976.9 |
| 20260503203518 | 51 | 232 | 1.0 | 5.0 | 0.00 | 0.00 | 0.00 | 44 | 976.8 |
| 20260503202540 | 51 | 218 | 2.0 | 5.0 | 0.00 | 0.00 | 0.00 | 44 | 976.7 |
| 20260503201519 | 52 | 226 | 2.0 | 5.0 | 0.00 | 0.00 | 0.00 | 43 | 976.5 |
| 20260503200516 | 53 | 203 | 2.0 | 4.0 | 0.00 | 0.00 | 0.00 | 43 | 976.4 |
| 20260503195521 | 53 | 208 | 1.0 | 3.0 | 0.00 | 0.00 | 0.00 | 41 | 976.4 |
| 20260503194519 | 53 | 212 | 2.0 | 5.0 | 0.00 | 0.00 | 0.00 | 39 | 976.5 |
| 20260503193517 | 53 | 244 | 1.0 | 3.0 | 0.00 | 0.00 | 0.00 | 41 | 976.1 |
| 20260503192517 | 52 | 258 | 0.0 | 2.0 | 0.00 | 0.00 | 0.00 | 42 | 976.5 |
| 20260503191517 | 52 | 3 | 1.0 | 3.0 | 0.00 | 0.00 | 0.00 | 44 | 977.0 |
| 20260503190540 | 52 | 37 | 1.0 | 3.0 | 0.00 | 0.00 | 0.00 | 44 | 977.0 |
| 20260503185521 | 51 | 27 | 2.0 | 5.0 | 0.00 | 0.00 | 0.00 | 45 | 976.8 |
| 20260503184517 | 52 | 52 | 2.0 | 4.0 | 0.00 | 0.00 | 0.00 | 44 | 977.6 |
| 20260503183538 | 52 | 42 | 2.0 | 7.0 | 0.00 | 0.00 | 0.00 | 43 | 976.9 |
| 20260503182517 | 51 | 52 | 2.0 | 5.0 | 0.00 | 0.00 | 0.00 | 44 | 976.8 |
| 20260503181518 | 53 | 53 | 3.0 | 8.0 | 0.00 | 0.00 | 0.00 | 42 | 977.6 |
| 20260503180518 | 52 | 53 | 3.0 | 9.0 | 0.00 | 0.00 | 0.00 | 42 | 977.4 |
| 20260503175518 | 52 | 42 | 2.0 | 5.0 | 0.00 | 0.00 | 0.00 | 42 | 977.5 |
| 20260503174518 | 53 | 19 | 2.0 | 6.0 | 0.00 | 0.00 | 0.00 | 41 | 977.7 |
| 20260503173518 | 52 | 27 | 1.0 | 4.0 | 0.00 | 0.00 | 0.00 | 43 | 977.6 |
| 20260503172518 | 51 | 41 | 2.0 | 5.0 | 0.00 | 0.00 | 0.00 | 43 | 977.9 |
| 20260503171541 | 51 | 354 | 2.0 | 6.0 | 0.00 | 0.00 | 0.00 | 42 | 978.1 |
| 20260503170520 | 51 | 53 | 2.0 | 5.0 | 0.00 | 0.00 | 0.00 | 42 | 978.1 |
| 20260503150517 | 45 | 45 | 2.0 | 6.0 | 0.00 | 0.00 | 0.00 | 54 | 979.6 |
| 20260503130520 | 40 | 6 | 1.0 | 8.0 | 0.00 | 0.00 | 0.00 | 59 | 981.0 |
| 20260503110517 | 30 | 263 | 0.0 | 1.0 | 0.00 | 0.00 | 0.00 | 83 | 981.4 |
| 20260503081519 | 32 | 260 | 0.0 | 2.0 | 0.00 | 0.00 | 0.00 | 79 | 982.1 |
| 20260503080520 | 32 | 334 | 0.0 | 2.0 | 0.00 | 0.00 | 0.00 | 78 | 982.2 |
| 20260503072519 | 33 | 241 | 1.0 | 4.0 | 0.00 | 0.00 | 0.00 | 76 | 981.9 |
| 20260503071520 | 32 | 258 | 0.0 | 4.0 | 0.00 | 0.00 | 0.00 | 76 | 981.9 |
| 20260503070517 | 33 | 258 | 1.0 | 4.0 | 0.00 | 0.00 | 0.00 | 75 | 982.1 |
| 20260503054519 | 34 | 142 | 0.0 | 3.0 | 0.00 | 0.00 | 0.00 | 75 | 982.4 |
| 20260503053520 | 34 | 135 | 0.0 | 2.0 | 0.00 | 0.00 | 0.00 | 75 | 982.6 |
| 20260503052519 | 34 | 194 | 0.0 | 3.0 | 0.00 | 0.00 | 0.00 | 74 | 982.7 |
| 20260503051540 | 34 | 173 | 0.0 | 2.0 | 0.00 | 0.00 | 0.00 | 74 | 982.8 |
| 20260503050517 | 34 | 170 | 0.0 | 1.0 | 0.00 | 0.00 | 0.00 | 74 | 982.8 |
| 20260503045518 | 34 | 200 | 0.0 | 2.0 | 0.00 | 0.00 | 0.00 | 73 | 982.9 |
| 20260503044540 | 35 | 199 | 0.0 | 1.0 | 0.00 | 0.00 | 0.00 | 72 | 982.9 |
| 20260503043520 | 35 | 230 | 0.0 | 1.0 | 0.00 | 0.00 | 0.00 | 71 | 983.0 |
| 20260503042541 | 36 | 224 | 0.0 | 2.0 | 0.00 | 0.00 | 0.00 | 71 | 983.0 |
| 20260503041517 | 36 | 149 | 0.0 | 2.0 | 0.00 | 0.00 | 0.00 | 69 | 982.9 |
| 20260503040518 | 36 | 213 | 0.0 | 1.0 | 0.00 | 0.00 | 0.00 | 68 | 982.8 |
| 20260503035517 | 36 | 214 | 0.0 | 1.0 | 0.00 | 0.00 | 0.00 | 68 | 982.7 |
| 20260503034521 | 36 | 123 | 0.0 | 1.0 | 0.00 | 0.00 | 0.00 | 68 | 982.8 |
| 20260503033518 | 36 | 226 | 0.0 | 1.0 | 0.00 | 0.00 | 0.00 | 67 | 982.9 |
| 20260503032518 | 36 | 225 | 0.0 | 2.0 | 0.00 | 0.00 | 0.00 | 67 | 983.1 |
| 20260503031559 | 36 | 207 | 0.0 | 1.0 | 0.00 | 0.00 | 0.00 | 67 | 983.1 |
| 20260503030518 | 36 | 240 | 0.0 | 1.0 | 0.00 | 0.00 | 0.00 | 66 | 983.1 |
| 20260503025518 | 36 | 225 | 0.0 | 1.0 | 0.00 | 0.00 | 0.00 | 65 | 983.1 |
| 20260503024519 | 36 | 261 | 0.0 | 1.0 | 0.00 | 0.00 | 0.00 | 65 | 983.3 |
| 20260503023518 | 37 | 234 | 0.0 | 1.0 | 0.00 | 0.00 | 0.00 | 64 | 983.4 |
| 20260503022519 | 37 | 243 | 0.0 | 1.0 | 0.00 | 0.00 | 0.00 | 65 | 983.5 |
| 20260503021519 | 37 | 232 | 0.0 | 1.0 | 0.00 | 0.00 | 0.00 | 64 | 983.5 |
| 20260503020520 | 37 | 222 | 0.0 | 1.0 | 0.00 | 0.00 | 0.00 | 63 | 983.6 |
| 20260503015519 | 38 | 224 | 0.0 | 2.0 | 0.00 | 0.00 | 0.00 | 63 | 983.6 |
| 20260503014520 | 38 | 235 | 0.0 | 1.0 | 0.00 | 0.00 | 0.00 | 62 | 983.6 |
| 20260503013519 | 38 | 219 | 0.0 | 1.0 | 0.00 | 0.00 | 0.00 | 62 | 983.6 |
| 20260503012519 | 39 | 230 | 0.0 | 1.0 | 0.00 | 0.00 | 0.00 | 63 | 983.6 |
| 20260503011521 | 39 | 275 | 0.0 | 1.0 | 0.00 | 0.00 | 0.00 | 62 | 983.6 |